User: anonymous   Login
Location: Cincinnati Observatory Center
(39.1389°N, 84.4225°W)
Time: 15:08:56
(UTC-04:00)
Language:

JAS-1B - Orbit

View from above orbital plane
View from above orbital plane
View from above satellite
View from above satellite

Ground track
Ground track

The orbit data is extracted from the following two-line orbital elements,

1 20480U 90013C   15142.55830188 -.00000005  00000-0  70821-4 0  9996
2 20480 099.0707 047.4460 0539479 305.5837 176.1725 12.83405550184668
Epoch (UTC): 22 May 2015 13:23:57
Eccentricity: 0.0539479
inclination: 99.0707°
perigee height: 912 km
apogee height: 1743 km
right ascension of ascending node: 47.4460°
argument of perigee: 305.5837°
revolutions per day: 12.83405550
mean anomaly at epoch: 176.1725°
orbit number at epoch: 18466

The dashed part of the orbit path shows where the satellite is in the earth's shadow,  

DLR